TimeCST,TemperatureF,Dew PointF,Humidity,Sea Level PressureIn,VisibilityMPH,Wind Direction,Wind SpeedMPH,Gust SpeedMPH,PrecipitationIn,Events,Conditions,WindDirDegrees,DateUTC
12:15 AM,26.6,19.4,74,30.01,10.0,SSW,12.7,18.4,N/A,,Clear,200,2013-01-07 06:15:00
12:35 AM,28.4,19.4,69,29.99,10.0,South,19.6,23.0,N/A,,Clear,190,2013-01-07 06:35:00
12:55 AM,28.4,19.4,69,29.98,10.0,South,16.1,-,N/A,,Clear,190,2013-01-07 06:55:00
1:15 AM,30.2,19.4,64,29.95,10.0,SSW,20.7,25.3,N/A,,Clear,200,2013-01-07 07:15:00
1:35 AM,30.2,19.4,64,29.94,10.0,SSW,25.3,33.4,N/A,,Clear,200,2013-01-07 07:35:00
1:55 AM,30.2,19.4,64,29.93,10.0,SSW,27.6,33.4,N/A,,Clear,200,2013-01-07 07:55:00
2:15 AM,30.2,21.2,69,29.93,10.0,SSW,27.6,33.4,N/A,,Clear,200,2013-01-07 08:15:00
2:35 AM,30.2,21.2,69,29.93,10.0,SSW,24.2,33.4,N/A,,Clear,200,2013-01-07 08:35:00
2:55 AM,30.2,21.2,69,29.93,10.0,SSW,24.2,29.9,N/A,,Clear,200,2013-01-07 08:55:00
3:15 AM,30.2,21.2,69,29.97,10.0,SSW,17.3,-,N/A,,Clear,210,2013-01-07 09:15:00
3:35 AM,28.4,21.2,74,29.96,10.0,SSW,13.8,-,N/A,,Clear,210,2013-01-07 09:35:00
3:55 AM,28.4,21.2,74,29.96,10.0,SSW,11.5,-,N/A,,Clear,200,2013-01-07 09:55:00
4:15 AM,28.4,21.2,74,29.94,10.0,South,11.5,-,N/A,,Clear,190,2013-01-07 10:15:00
4:55 AM,30.2,21.2,69,29.92,10.0,SSW,16.1,-,N/A,,Clear,200,2013-01-07 10:55:00
5:15 AM,30.2,21.2,69,29.91,10.0,SSW,17.3,-,N/A,,Clear,200,2013-01-07 11:15:00
5:35 AM,28.4,21.2,74,29.92,10.0,SSW,12.7,-,N/A,,Clear,210,2013-01-07 11:35:00
5:55 AM,28.4,19.4,69,29.92,10.0,SSW,8.1,-,N/A,,Clear,210,2013-01-07 11:55:00
6:15 AM,26.6,19.4,74,29.94,10.0,SW,3.5,-,N/A,,Clear,220,2013-01-07 12:15:00
6:35 AM,24.8,19.4,80,29.95,10.0,Calm,Calm,-,N/A,,Clear,0,2013-01-07 12:35:00
6:55 AM,24.8,17.6,74,29.95,10.0,South,4.6,-,N/A,,Clear,190,2013-01-07 12:55:00
7:15 AM,26.6,19.4,74,29.93,10.0,South,8.1,-,N/A,,Clear,190,2013-01-07 13:15:00
7:35 AM,26.6,19.4,74,29.94,10.0,SSW,8.1,-,N/A,,Clear,200,2013-01-07 13:35:00
7:55 AM,24.8,17.6,74,29.96,10.0,SSW,3.5,-,N/A,,Clear,210,2013-01-07 13:55:00
8:15 AM,24.8,17.6,74,29.97,10.0,South,4.6,-,N/A,,Clear,190,2013-01-07 14:15:00
8:35 AM,23.0,17.6,80,29.96,10.0,SSW,4.6,-,N/A,,Clear,210,2013-01-07 14:35:00
8:55 AM,21.2,17.6,86,29.97,10.0,SSW,3.5,-,N/A,,Clear,200,2013-01-07 14:55:00
9:15 AM,23.0,17.6,80,29.98,10.0,SSW,3.5,-,N/A,,Clear,200,2013-01-07 15:15:00
9:35 AM,24.8,19.4,80,29.99,10.0,Calm,Calm,-,N/A,,Clear,0,2013-01-07 15:35:00
9:55 AM,26.6,19.4,74,30.00,10.0,SSW,4.6,-,N/A,,Clear,210,2013-01-07 15:55:00
10:15 AM,30.2,21.2,69,29.98,10.0,SW,5.8,-,N/A,,Clear,220,2013-01-07 16:15:00
10:35 AM,30.2,21.2,69,29.99,10.0,WSW,3.5,-,N/A,,Clear,240,2013-01-07 16:35:00
10:55 AM,30.2,21.2,69,29.99,10.0,SSW,6.9,-,N/A,,Clear,200,2013-01-07 16:55:00
11:35 AM,33.8,23.0,65,29.99,10.0,Calm,Calm,-,N/A,,Clear,0,2013-01-07 17:35:00
11:55 AM,33.8,23.0,65,29.98,10.0,WSW,3.5,-,N/A,,Clear,240,2013-01-07 17:55:00
12:35 PM,35.6,24.8,65,29.96,10.0,Calm,Calm,-,N/A,,Clear,0,2013-01-07 18:35:00
12:55 PM,35.6,24.8,65,29.95,10.0,SW,3.5,-,N/A,,Clear,220,2013-01-07 18:55:00
1:15 PM,35.6,24.8,65,29.96,10.0,West,3.5,-,N/A,,Clear,260,2013-01-07 19:15:00
1:55 PM,35.6,24.8,65,29.96,10.0,SW,3.5,-,N/A,,Clear,220,2013-01-07 19:55:00
2:15 PM,35.6,24.8,65,29.97,10.0,SW,3.5,-,N/A,,Clear,230,2013-01-07 20:15:00
2:35 PM,35.6,24.8,65,29.97,10.0,SW,3.5,-,N/A,,Clear,230,2013-01-07 20:35:00
2:55 PM,37.4,24.8,60,29.98,10.0,SW,3.5,-,N/A,,Clear,230,2013-01-07 20:55:00
3:15 PM,37.4,24.8,60,29.98,10.0,Calm,Calm,-,N/A,,Clear,0,2013-01-07 21:15:00
3:35 PM,37.4,24.8,60,29.98,10.0,Calm,Calm,-,N/A,,Clear,0,2013-01-07 21:35:00
3:55 PM,37.4,24.8,60,29.98,10.0,SW,3.5,-,N/A,,Clear,220,2013-01-07 21:55:00
4:15 PM,35.6,24.8,65,29.98,10.0,Calm,Calm,-,N/A,,Clear,0,2013-01-07 22:15:00
4:35 PM,35.6,24.8,65,29.97,10.0,Calm,Calm,-,N/A,,Clear,0,2013-01-07 22:35:00
4:55 PM,33.8,24.8,70,29.98,10.0,Calm,Calm,-,N/A,,Clear,0,2013-01-07 22:55:00
5:15 PM,32.0,24.8,75,29.98,10.0,Calm,Calm,-,N/A,,Clear,0,2013-01-07 23:15:00
5:35 PM,30.2,24.8,80,29.99,10.0,Calm,Calm,-,N/A,,Clear,0,2013-01-07 23:35:00
5:55 PM,26.6,23.0,86,29.99,10.0,Calm,Calm,-,N/A,,Clear,0,2013-01-07 23:55:00
6:15 PM,26.6,23.0,86,30.00,10.0,Calm,Calm,-,N/A,,Clear,0,2013-01-08 00:15:00
6:35 PM,24.8,21.2,86,29.99,10.0,Calm,Calm,-,N/A,,Clear,0,2013-01-08 00:35:00
6:55 PM,24.8,21.2,86,29.99,10.0,Calm,Calm,-,N/A,,Clear,0,2013-01-08 00:55:00
7:15 PM,23.0,21.2,93,29.99,7.0,Calm,Calm,-,N/A,,Clear,0,2013-01-08 01:15:00
7:35 PM,21.2,17.6,86,29.99,5.0,Calm,Calm,-,N/A,,Clear,0,2013-01-08 01:35:00
7:55 PM,19.4,17.6,93,29.99,1.8,Calm,Calm,-,N/A,,Mist,0,2013-01-08 01:55:00
8:15 PM,19.4,15.8,86,29.99,5.0,Calm,Calm,-,N/A,,Clear,0,2013-01-08 02:15:00
8:35 PM,17.6,12.2,79,29.98,4.0,Calm,Calm,-,N/A,,Clear,0,2013-01-08 02:35:00
8:55 PM,17.6,15.8,93,29.98,7.0,Calm,Calm,-,N/A,,Clear,0,2013-01-08 02:55:00
9:15 PM,19.4,15.8,86,29.98,7.0,Calm,Calm,-,N/A,,Clear,0,2013-01-08 03:15:00
9:35 PM,15.8,10.4,79,29.98,10.0,Calm,Calm,-,N/A,,Clear,0,2013-01-08 03:35:00
9:55 PM,15.8,12.2,86,29.98,7.0,Calm,Calm,-,N/A,,Clear,0,2013-01-08 03:55:00
10:15 PM,15.8,12.2,86,29.98,7.0,Calm,Calm,-,N/A,,Clear,0,2013-01-08 04:15:00
10:35 PM,14.0,10.4,86,29.98,7.0,Calm,Calm,-,N/A,,Clear,0,2013-01-08 04:35:00
10:55 PM,12.2,8.6,85,29.97,7.0,Calm,Calm,-,N/A,,Clear,0,2013-01-08 04:55:00
11:15 PM,15.8,10.4,79,29.97,7.0,Calm,Calm,-,N/A,,Clear,0,2013-01-08 05:15:00
11:35 PM,10.4,6.8,85,29.97,10.0,Calm,Calm,-,N/A,,Clear,0,2013-01-08 05:35:00
11:55 PM,12.2,6.8,79,29.96,10.0,Calm,Calm,-,N/A,,Clear,0,2013-01-08 05:55:00